Location: Recife
(8.0585°S, 34.8848°W)
Time: 11:57:01
(UTC-03:00)

Explorer 7 - All Passes

Search period start: 14 April 2026 00:00
Search period end: 24 April 2026 00:00
Orbit: 428 x 538 km, 50.2° (Epoch: 14 April)

Date Brightness Start Highest point End Pass type
(mag) Time Alt. Az. Time Alt. Az. Time Alt. Az.
14 Apr - 02:23:39 10° WNW 02:26:54 36° SW 02:30:06 10° SSE night (unlit)
14 Apr - 12:27:43 10° SSW 12:31:21 40° SE 12:35:05 10° ENE daylight
14 Apr - 14:08:42 10° WNW 14:09:30 10° NW 14:10:19 10° NW daylight
15 Apr - 01:56:19 10° NW 01:59:40 41° SW 02:02:57 10° SSE night (unlit)
15 Apr - 12:00:34 10° SSW 12:04:05 35° SE 12:07:42 10° ENE daylight
15 Apr - 13:40:47 10° WNW 13:42:15 12° NW 13:43:43 10° NNW daylight
16 Apr - 01:29:00 10° NW 01:32:25 47° SW 01:35:47 10° SSE night (unlit)
16 Apr - 11:33:24 10° SSW 11:36:49 31° SE 11:40:19 10° ENE daylight
16 Apr - 13:13:07 10° W 13:14:58 13° NW 13:16:52 10° NNW daylight
17 Apr - 01:01:40 10° NW 01:05:10 55° SW 01:08:35 10° SSE night (unlit)
17 Apr - 11:06:16 10° S 11:09:32 28° SE 11:12:54 10° ENE daylight
17 Apr - 12:45:31 10° W 12:47:41 14° NW 12:49:54 10° NNW daylight
18 Apr - 00:34:20 10° NW 00:37:53 64° SW 00:41:22 10° SSE night (unlit)
18 Apr - 10:39:08 10° S 10:42:14 24° SE 10:45:27 10° ENE daylight
18 Apr - 12:17:58 10° W 12:20:24 16° NW 12:22:51 10° NNW daylight
19 Apr - 00:07:00 10° NW 00:10:37 74° SW 00:14:07 10° SSE night (unlit)
19 Apr - 10:11:59 10° S 10:14:56 22° SE 10:17:57 10° ENE daylight
19 Apr - 11:50:27 10° W 11:53:06 18° NW 11:55:47 10° N daylight
19 Apr - 23:39:41 10° NW 23:43:19 85° SW 23:46:51 10° SE night (unlit)
20 Apr - 09:44:53 10° S 09:47:37 19° SE 09:50:26 10° E daylight
20 Apr - 11:22:58 10° WSW 11:25:47 20° NW 11:28:38 10° N daylight
20 Apr - 23:12:21 10° NW 23:16:01 83° NE 23:19:34 10° SE night (unlit)
21 Apr - 09:17:47 10° S 09:20:18 17° SE 09:22:51 10° E daylight
21 Apr - 10:55:30 10° WSW 10:58:27 22° NW 11:01:28 10° N daylight
21 Apr - 22:45:02 10° NNW 22:48:42 72° NE 22:52:15 10° SE night (unlit)
22 Apr - 08:50:43 10° SSE 08:52:58 15° SE 08:55:14 10° E daylight
22 Apr - 10:28:02 10° WSW 10:31:07 24° NW 10:34:16 10° N daylight
22 Apr - 22:17:41 10° NNW 22:21:22 63° NE 22:24:55 10° SE night (unlit)
23 Apr - 08:23:42 10° SSE 08:25:36 14° SE 08:27:33 10° E daylight
23 Apr - 10:00:36 10° WSW 10:03:46 27° NW 10:07:02 10° N daylight
23 Apr - 21:50:22 10° NNW 21:54:01 54° NE 21:57:34 10° SE night (unlit)
